,,Stat6,,Stat2,,Stat8,,Stat9,,Stat10,,Wind1,,Wind1,
time,status,PA1M_AVG,status,PR1M_SUM,status,RH1M_AVG,status,SR1M_AVG,status,TA1M_AVG,status,W1dAve1m,status,W1sAve1m,
2003-12-03, 00:00:00,VALID,918.2,VALID,0,VALID,99.1356,VALID,-0.0339617,VALID,20.0963,VALID,37,VALID,0.439583,
2003-12-03, 00:01:00,VALID,918.189,VALID,0,VALID,99.1216,VALID,-0.0849042,VALID,20.0895,VALID,27,VALID,0.573969,
2003-12-03, 00:02:00,VALID,918.164,VALID,0,VALID,99.0707,VALID,-0.0339617,VALID,20.0826,VALID,26,VALID,0.58085,
2003-12-03, 00:03:00,VALID,918.154,VALID,0,VALID,99.0148,VALID,-0.0849042,VALID,20.0702,VALID,24,VALID,0.509527,
2003-12-03, 00:04:00,VALID,918.154,VALID,0,VALID,98.9677,VALID,-0.0509425,VALID,20.0505,VALID,13,VALID,0.414253,
2003-12-03, 00:05:00,VALID,918.153,VALID,0,VALID,98.9614,VALID,0,VALID,20.0406,VALID,13,VALID,0.0902593,
2003-12-03, 00:06:00,VALID,918.151,VALID,0,VALID,98.941,VALID,-0.0339617,VALID,20.0406,VALID,13,VALID,0.00476372,
2003-12-03, 00:07:00,VALID,918.154,VALID,0,VALID,98.9067,VALID,-0.0339617,VALID,20.0438,VALID,13,VALID,0.0910823,
2003-12-03, 00:08:00,VALID,918.145,VALID,0,VALID,98.9079,VALID,-0.0509425,VALID,20.051,VALID,13,VALID,0,
2003-12-03, 00:09:00,VALID,918.147,VALID,0,VALID,98.8685,VALID,-0.0339617,VALID,20.061,VALID,13,VALID,0.0946378,
2003-12-03, 00:10:00,VALID,918.136,VALID,0,VALID,98.8278,VALID,-0.0339617,VALID,20.064,VALID,13,VALID,0.173958,
2003-12-03, 00:11:00,VALID,918.117,VALID,0,VALID,98.7744,VALID,-0.0849042,VALID,20.0572,VALID,13,VALID,0.193824,
2003-12-03, 00:12:00,VALID,918.11,VALID,0,VALID,98.7541,VALID,-0.0339617,VALID,20.0605,VALID,13,VALID,0.319912,
2003-12-03, 00:13:00,VALID,918.098,VALID,0,VALID,98.6549,VALID,-0.0339617,VALID,20.0578,VALID,13,VALID,0.384681,
2003-12-03, 00:14:00,VALID,918.075,VALID,0,VALID,98.5989,VALID,-0.0169808,VALID,20.0381,VALID,12,VALID,0.45348,
2003-12-03, 00:15:00,VALID,918.057,VALID,0,VALID,98.6218,VALID,-0.0169808,VALID,20.0314,VALID,11,VALID,0.455031,
2003-12-03, 00:16:00,VALID,918.031,VALID,0,VALID,98.6638,VALID,-0.0509425,VALID,20.0249,VALID,10,VALID,0.419643,
2003-12-03, 00:17:00,VALID,918.012,VALID,0,VALID,98.7515,VALID,-0.0169808,VALID,20.0386,VALID,8,VALID,0.330357,
2003-12-03, 00:18:00,VALID,918.002,VALID,0,VALID,98.8049,VALID,-0.0169808,VALID,20.0282,VALID,360,VALID,0.480373,
2003-12-03, 00:19:00,VALID,917.991,VALID,0,VALID,98.8355,VALID,-0.0509425,VALID,20.0153,VALID,354,VALID,0.618963,
2003-12-03, 00:20:00,VALID,917.976,VALID,0,VALID,98.7744,VALID,-0.0679233,VALID,19.9956,VALID,6,VALID,0.387355,
2003-12-03, 00:21:00,VALID,917.964,VALID,0,VALID,98.7197,VALID,-0.0169808,VALID,19.9666,VALID,6,VALID,0.355841,
2003-12-03, 00:22:00,VALID,917.959,VALID,0,VALID,98.721,VALID,-0.0339617,VALID,19.9536,VALID,6,VALID,0.361683,
2003-12-03, 00:23:00,VALID,917.943,VALID,0,VALID,98.6994,VALID,-0.0849042,VALID,19.9151,VALID,6,VALID,0.344618,
2003-12-03, 00:24:00,VALID,917.948,VALID,0,VALID,98.7922,VALID,-0.0509425,VALID,19.8923,VALID,6,VALID,0.428043,
2003-12-03, 00:25:00,VALID,917.95,VALID,0,VALID,98.8749,VALID,0,VALID,19.8861,VALID,7,VALID,0.383539,
2003-12-03, 00:26:00,VALID,917.944,VALID,0,VALID,98.8278,VALID,-0.0679233,VALID,19.8702,VALID,7,VALID,0.446514,
2003-12-03, 00:27:00,VALID,917.933,VALID,0,VALID,98.7821,VALID,-0.0339617,VALID,19.8411,VALID,7,VALID,0.416667,
2003-12-03, 00:28:00,VALID,917.931,VALID,0,VALID,98.7375,VALID,-0.0169808,VALID,19.812,VALID,7,VALID,0.344866,
2003-12-03, 00:29:00,VALID,917.935,VALID,0,VALID,98.7528,VALID,-0.0509425,VALID,19.7725,VALID,7,VALID,0.250363,
2003-12-03, 00:30:00,VALID,917.919,VALID,0,VALID,98.88,VALID,-0.0169808,VALID,19.7733,VALID,7,VALID,0.204728,
2003-12-03, 00:31:00,VALID,917.922,VALID,0,VALID,98.9779,VALID,-0.0169808,VALID,19.7599,VALID,7,VALID,0.00870028,
2003-12-03, 00:32:00,VALID,917.919,VALID,0,VALID,99.0605,VALID,-0.0509425,VALID,19.7536,VALID,7,VALID,0.00114329,
2003-12-03, 00:33:00,VALID,917.905,VALID,0,VALID,99.0758,VALID,-0.0509425,VALID,19.7474,VALID,7,VALID,0.346243,
2003-12-03, 00:34:00,VALID,917.906,VALID,0,VALID,99.1445,VALID,-0.0339617,VALID,19.7278,VALID,7,VALID,0.285657,
2003-12-03, 00:35:00,VALID,917.884,VALID,0,VALID,99.2106,VALID,-0.0339617,VALID,19.7283,VALID,7,VALID,0.37221,
2003-12-03, 00:36:00,VALID,917.876,VALID,0,VALID,99.2627,VALID,-0.0339617,VALID,19.7181,VALID,9,VALID,0.456174,
2003-12-03, 00:37:00,VALID,917.862,VALID,0,VALID,99.3314,VALID,-0.0679233,VALID,19.7079,VALID,17,VALID,0.383929,
2003-12-03, 00:38:00,VALID,917.852,VALID,0,VALID,99.3759,VALID,-0.0679233,VALID,19.7243,VALID,17,VALID,0.306868,
2003-12-03, 00:39:00,VALID,917.835,VALID,0,VALID,99.3772,VALID,-0.0679233,VALID,19.7248,VALID,23,VALID,0.473958,
2003-12-03, 00:40:00,VALID,917.813,VALID,0,VALID,99.3683,VALID,-0.0509425,VALID,19.7313,VALID,25,VALID,0.564546,
2003-12-03, 00:41:00,VALID,917.8,VALID,0,VALID,99.3479,VALID,-0.0679233,VALID,19.7181,VALID,25,VALID,0.688802,
2003-12-03, 00:42:00,VALID,917.791,VALID,0,VALID,99.3377,VALID,-0.0679233,VALID,19.7216,VALID,25,VALID,0.449826,
2003-12-03, 00:43:00,VALID,917.776,VALID,0,VALID,99.2945,VALID,-0.0849042,VALID,19.7052,VALID,25,VALID,0.253534,
2003-12-03, 00:44:00,VALID,917.784,VALID,0,VALID,99.2856,VALID,-0.0679233,VALID,19.7149,VALID,25,VALID,0.190168,
2003-12-03, 00:45:00,VALID,917.762,VALID,0,VALID,99.2538,VALID,-0.0679233,VALID,19.7087,VALID,25,VALID,0.140092,
2003-12-03, 00:46:00,VALID,917.754,VALID,0,VALID,99.2131,VALID,-0.0339617,VALID,19.6987,VALID,25,VALID,0.201308,
2003-12-03, 00:47:00,VALID,917.731,VALID,0,VALID,99.1826,VALID,-0.0849042,VALID,19.6863,VALID,25,VALID,0.100291,
2003-12-03, 00:48:00,VALID,917.715,VALID,0,VALID,99.2017,VALID,-0.0679233,VALID,19.6895,VALID,25,VALID,0.0513672,
2003-12-03, 00:49:00,VALID,917.695,VALID,0,VALID,99.2653,VALID,-0.0849042,VALID,19.7025,VALID,20,VALID,0.276278,
2003-12-03, 00:50:00,VALID,917.685,VALID,0,VALID,99.3225,VALID,-0.0509425,VALID,19.7216,VALID,20,VALID,0.225836,
2003-12-03, 00:51:00,VALID,917.665,VALID,0,VALID,99.3581,VALID,-0.0169808,VALID,19.7238,VALID,20,VALID,0.0582217,
2003-12-03, 00:52:00,VALID,917.644,VALID,0,VALID,99.3556,VALID,0.0339617,VALID,19.7395,VALID,20,VALID,0,
2003-12-03, 00:53:00,VALID,917.641,VALID,0,VALID,99.3492,VALID,0.0339617,VALID,19.7529,VALID,19,VALID,0.0299782,
2003-12-03, 00:54:00,VALID,917.634,VALID,0,VALID,99.4408,VALID,0.0339617,VALID,19.7718,VALID,19,VALID,0.00426136,
2003-12-03, 00:55:00,VALID,917.598,VALID,0,VALID,99.4547,VALID,0.0169808,VALID,19.7817,VALID,19,VALID,0.24782,
2003-12-03, 00:56:00,VALID,917.586,VALID,0,VALID,99.4814,VALID,0.0169808,VALID,19.8043,VALID,19,VALID,0.0980114,
2003-12-03, 00:57:00,VALID,917.556,VALID,0,VALID,99.5361,VALID,0.0339617,VALID,19.8103,VALID,19,VALID,0,
2003-12-03, 00:58:00,VALID,917.523,VALID,0,VALID,99.5577,VALID,0.0679233,VALID,19.8331,VALID,19,VALID,0,
2003-12-03, 00:59:00,VALID,917.503,VALID,0,VALID,99.5107,VALID,0.0169808,VALID,19.8297,VALID,19,VALID,0,
2003-12-03, 01:00:00,VALID,917.483,VALID,0,VALID,99.4318,VALID,0.0339617,VALID,19.8247,VALID,19,VALID,0,
2003-12-03, 01:01:00,VALID,917.454,VALID,0,VALID,99.3301,VALID,0.0339617,VALID,19.7951,VALID,19,VALID,0,
2003-12-03, 01:02:00,VALID,917.407,VALID,0,VALID,99.2335,VALID,0.0169808,VALID,19.7626,VALID,19,VALID,0,
2003-12-03, 01:03:00,VALID,917.378,VALID,0,VALID,99.1368,VALID,0.0509425,VALID,19.7432,VALID,19,VALID,0,
2003-12-03, 01:04:00,VALID,917.351,VALID,0,VALID,99.0224,VALID,0.0339617,VALID,19.7204,VALID,19,VALID,0,
2003-12-03, 01:05:00,VALID,917.327,VALID,0,VALID,98.9779,VALID,0.0509425,VALID,19.6973,VALID,19,VALID,0,
2003-12-03, 01:06:00,VALID,917.3,VALID,0,VALID,98.8825,VALID,-0.0169808,VALID,19.6694,VALID,19,VALID,0,
2003-12-03, 01:07:00,VALID,917.302,VALID,0,VALID,98.8494,VALID,-0.101885,VALID,19.6344,VALID,19,VALID,0,
2003-12-03, 01:08:00,VALID,917.267,VALID,0,VALID,98.9181,VALID,-0.101885,VALID,19.6086,VALID,19,VALID,0,
2003-12-03, 01:09:00,VALID,917.261,VALID,0,VALID,98.9766,VALID,-0.0679233,VALID,19.5929,VALID,19,VALID,0,
2003-12-03, 01:10:00,VALID,917.249,VALID,0,VALID,98.9944,VALID,-0.0679233,VALID,19.5733,VALID,19,VALID,0.15734,
2003-12-03, 01:11:00,VALID,917.21,VALID,0,VALID,98.9982,VALID,-0.0849042,VALID,19.5469,VALID,21,VALID,0.345139,
2003-12-03, 01:12:00,VALID,917.201,VALID,0,VALID,98.9474,VALID,-0.0679233,VALID,19.5579,VALID,28,VALID,0.400568,
2003-12-03, 01:13:00,VALID,917.162,VALID,0,VALID,98.9499,VALID,-0.0679233,VALID,19.5415,VALID,33,VALID,0.536345,
2003-12-03, 01:14:00,VALID,917.158,VALID,0,VALID,98.9207,VALID,-0.0849042,VALID,19.5283,VALID,40,VALID,0.666174,
2003-12-03, 01:15:00,VALID,917.12,VALID,0,VALID,98.8634,VALID,-0.0679233,VALID,19.5283,VALID,46,VALID,0.56436,
2003-12-03, 01:16:00,VALID,917.097,VALID,0,VALID,98.7223,VALID,-0.0679233,VALID,19.5156,VALID,55,VALID,0.545898,
2003-12-03, 01:17:00,VALID,917.076,VALID,0,VALID,98.6587,VALID,-0.0849042,VALID,19.4992,VALID,61,VALID,0.546875,
2003-12-03, 01:18:00,VALID,917.07,VALID,0,VALID,98.6142,VALID,-0.0509425,VALID,19.4955,VALID,72,VALID,0.517578,
2003-12-03, 01:19:00,VALID,917.052,VALID,0,VALID,98.6104,VALID,-0.101885,VALID,19.4826,VALID,80,VALID,0.419922,
2003-12-03, 01:20:00,VALID,917.044,VALID,0,VALID,98.6244,VALID,-0.0849042,VALID,19.496,VALID,80,VALID,0.391578,
2003-12-03, 01:21:00,VALID,917.048,VALID,0,VALID,98.6524,VALID,-0.0509425,VALID,19.4799,VALID,80,VALID,0.315625,
2003-12-03, 01:22:00,VALID,917.049,VALID,0,VALID,98.6803,VALID,-0.0679233,VALID,19.4955,VALID,80,VALID,0.281068,
2003-12-03, 01:23:00,VALID,917.038,VALID,0,VALID,98.7236,VALID,-0.0509425,VALID,19.4694,VALID,80,VALID,0.249256,
2003-12-03, 01:24:00,VALID,917.032,VALID,0,VALID,98.7426,VALID,-0.0849042,VALID,19.4799,VALID,80,VALID,0.122332,
2003-12-03, 01:25:00,VALID,917.025,VALID,0,VALID,98.777,VALID,-0.0509425,VALID,19.4796,VALID,80,VALID,0.00502232,
2003-12-03, 01:26:00,VALID,917.016,VALID,0,VALID,98.7808,VALID,-0.101885,VALID,19.4764,VALID,80,VALID,0,
2003-12-03, 01:27:00,VALID,916.987,VALID,0,VALID,98.8164,VALID,-0.0679233,VALID,19.4804,VALID,80,VALID,0,
2003-12-03, 01:28:00,VALID,916.967,VALID,0,VALID,98.7922,VALID,-0.101885,VALID,19.4771,VALID,80,VALID,0.0223474,
2003-12-03, 01:29:00,VALID,916.945,VALID,0,VALID,98.7274,VALID,-0.101885,VALID,19.461,VALID,79,VALID,0.430259,
2003-12-03, 01:30:00,VALID,916.916,VALID,0,VALID,98.7274,VALID,-0.101885,VALID,19.4543,VALID,79,VALID,0.633345,
2003-12-03, 01:31:00,VALID,916.884,VALID,0,VALID,98.8622,VALID,-0.0849042,VALID,19.4543,VALID,79,VALID,0.751906,
2003-12-03, 01:32:00,VALID,916.863,VALID,0,VALID,98.7859,VALID,-0.0679233,VALID,19.4637,VALID,78,VALID,0.7413,
2003-12-03, 01:33:00,VALID,916.832,VALID,0,VALID,98.7426,VALID,-0.0339617,VALID,19.4443,VALID,78,VALID,0.692708,
2003-12-03, 01:34:00,VALID,916.818,VALID,0,VALID,98.7668,VALID,-0.0339617,VALID,19.4376,VALID,77,VALID,0.512784,
2003-12-03, 01:35:00,VALID,916.809,VALID,0,VALID,98.7274,VALID,-0.0849042,VALID,19.425,VALID,77,VALID,0.301683,
2003-12-03, 01:36:00,VALID,916.797,VALID,0,VALID,98.7554,VALID,-0.0679233,VALID,19.4242,VALID,77,VALID,0.136039,
2003-12-03, 01:37:00,VALID,916.779,VALID,0,VALID,98.7439,VALID,0.0679233,VALID,19.4165,VALID,77,VALID,0.000726744,
2003-12-03, 01:38:00,VALID,916.79,VALID,0,VALID,98.7147,VALID,0.0339617,VALID,19.4136,VALID,77,VALID,0.000363372,
2003-12-03, 01:39:00,VALID,916.778,VALID,0,VALID,98.721,VALID,0.0169808,VALID,19.4036,VALID,77,VALID,0,
2003-12-03, 01:40:00,VALID,916.772,VALID,0,VALID,98.8049,VALID,0.0169808,VALID,19.4302,VALID,77,VALID,0,
2003-12-03, 01:41:00,VALID,916.768,VALID,0,VALID,98.8367,VALID,0.0339617,VALID,19.4431,VALID,77,VALID,0.114826,
2003-12-03, 01:42:00,VALID,916.754,VALID,0,VALID,98.8075,VALID,0.0169808,VALID,19.4523,VALID,66,VALID,0.458576,
2003-12-03, 01:43:00,VALID,916.724,VALID,0,VALID,98.749,VALID,0.0339617,VALID,19.4563,VALID,57,VALID,0.59096,
2003-12-03, 01:44:00,VALID,916.703,VALID,0,VALID,98.6206,VALID,0.0339617,VALID,19.4627,VALID,56,VALID,0.652521,
2003-12-03, 01:45:00,VALID,916.68,VALID,0,VALID,98.4616,VALID,0,VALID,19.4722,VALID,56,VALID,0.604725,
2003-12-03, 01:46:00,VALID,916.662,VALID,0,VALID,98.3052,VALID,0,VALID,19.4948,VALID,56,VALID,0.614648,
2003-12-03, 01:47:00,VALID,916.635,VALID,0,VALID,98.1526,VALID,0.0169808,VALID,19.5079,VALID,56,VALID,0.496804,
2003-12-03, 01:48:00,VALID,916.611,VALID,0,VALID,97.972,VALID,0,VALID,19.5144,VALID,56,VALID,0.369368,
2003-12-03, 01:49:00,VALID,916.598,VALID,0,VALID,97.8436,VALID,0.0509425,VALID,19.5206,VALID,56,VALID,0.237165,
2003-12-03, 01:50:00,VALID,916.569,VALID,0,VALID,97.7877,VALID,0,VALID,19.5209,VALID,56,VALID,0.00799006,
2003-12-03, 01:51:00,VALID,916.55,VALID,0,VALID,97.7381,VALID,-0.0339617,VALID,19.5112,VALID,56,VALID,0,
2003-12-03, 01:52:00,VALID,916.535,VALID,0,VALID,97.733,VALID,-0.0849042,VALID,19.5124,VALID,56,VALID,0,
2003-12-03, 01:53:00,VALID,916.514,VALID,0,VALID,97.7139,VALID,-0.0509425,VALID,19.5062,VALID,56,VALID,0,
2003-12-03, 01:54:00,VALID,916.494,VALID,0,VALID,97.7012,VALID,-0.0849042,VALID,19.4896,VALID,56,VALID,0,
2003-12-03, 01:55:00,VALID,916.467,VALID,0,VALID,97.6643,VALID,-0.0679233,VALID,19.4737,VALID,56,VALID,0,
2003-12-03, 01:56:00,VALID,916.45,VALID,0,VALID,97.6325,VALID,-0.101885,VALID,19.4515,VALID,56,VALID,0,
2003-12-03, 01:57:00,VALID,916.419,VALID,0,VALID,97.7152,VALID,-0.101885,VALID,19.4418,VALID,56,VALID,0.202415,
2003-12-03, 01:58:00,VALID,916.407,VALID,0,VALID,97.7737,VALID,-0.0679233,VALID,19.4125,VALID,56,VALID,0.289063,
2003-12-03, 01:59:00,VALID,916.381,VALID,0,VALID,97.8004,VALID,-0.101885,VALID,19.3996,VALID,56,VALID,0.406641,
2003-12-03, 02:00:00,VALID,916.365,VALID,0,VALID,97.8538,VALID,-0.0849042,VALID,19.3832,VALID,56,VALID,0.314977,
2003-12-03, 02:01:00,VALID,916.359,VALID,0,VALID,97.8093,VALID,-0.101885,VALID,19.3706,VALID,56,VALID,0.226385,
2003-12-03, 02:02:00,VALID,916.356,VALID,0,VALID,97.8233,VALID,-0.0849042,VALID,19.3539,VALID,56,VALID,0.124818,
2003-12-03, 02:03:00,VALID,916.338,VALID,0,VALID,97.7686,VALID,-0.0849042,VALID,19.3445,VALID,56,VALID,0.271577,
2003-12-03, 02:04:00,VALID,916.338,VALID,0,VALID,97.808,VALID,-0.0679233,VALID,19.3154,VALID,56,VALID,0.228161,
2003-12-03, 02:05:00,VALID,916.338,VALID,0,VALID,97.9403,VALID,-0.101885,VALID,19.3057,VALID,56,VALID,0.246354,
2003-12-03, 02:06:00,VALID,916.335,VALID,0,VALID,98.0178,VALID,-0.101885,VALID,19.306,VALID,56,VALID,0.140988,
2003-12-03, 02:07:00,VALID,916.336,VALID,0,VALID,98.0954,VALID,-0.0849042,VALID,19.303,VALID,56,VALID,0.112926,
2003-12-03, 02:08:00,VALID,916.334,VALID,0,VALID,98.1679,VALID,-0.0679233,VALID,19.296,VALID,56,VALID,0.0152138,
2003-12-03, 02:09:00,VALID,916.324,VALID,0,VALID,98.2442,VALID,-0.0679233,VALID,19.3022,VALID,72,VALID,0.483487,
2003-12-03, 02:10:00,VALID,916.33,VALID,0,VALID,98.3497,VALID,-0.101885,VALID,19.3062,VALID,123,VALID,0.65516,
2003-12-03, 02:11:00,VALID,916.327,VALID,0,VALID,98.5048,VALID,-0.101885,VALID,19.3127,VALID,137,VALID,0.904154,
2003-12-03, 02:12:00,VALID,916.322,VALID,0,VALID,98.6346,VALID,-0.101885,VALID,19.3124,VALID,139,VALID,0.753162,
2003-12-03, 02:13:00,VALID,916.325,VALID,0,VALID,98.6994,VALID,-0.0679233,VALID,19.3089,VALID,138,VALID,0.545967,
2003-12-03, 02:14:00,VALID,916.327,VALID,0,VALID,98.7426,VALID,-0.101885,VALID,19.3191,VALID,138,VALID,0.406605,
2003-12-03, 02:15:00,VALID,916.333,VALID,0,VALID,98.7871,VALID,-0.0679233,VALID,19.3256,VALID,146,VALID,0.407051,
2003-12-03, 02:16:00,VALID,916.33,VALID,0,VALID,98.8749,VALID,-0.0509425,VALID,19.3454,VALID,168,VALID,0.431974,
2003-12-03, 02:17:00,VALID,916.345,VALID,0,VALID,98.8952,VALID,-0.0679233,VALID,19.3452,VALID,167,VALID,0.399164,
2003-12-03, 02:18:00,VALID,916.352,VALID,0,VALID,98.9766,VALID,-0.101885,VALID,19.3454,VALID,174,VALID,0.547894,
2003-12-03, 02:19:00,VALID,916.345,VALID,0,VALID,99.0682,VALID,-0.0849042,VALID,19.3452,VALID,182,VALID,0.617569,
2003-12-03, 02:20:00,VALID,916.342,VALID,0,VALID,99.2169,VALID,-0.101885,VALID,19.3477,VALID,174,VALID,0.803052,
2003-12-03, 02:21:00,VALID,916.345,VALID,0,VALID,99.3492,VALID,-0.0679233,VALID,19.3539,VALID,180,VALID,0.783249,
2003-12-03, 02:22:00,VALID,916.327,VALID,0,VALID,99.4395,VALID,0.0169808,VALID,19.3596,VALID,177,VALID,0.445858,
2003-12-03, 02:23:00,VALID,916.318,VALID,0,VALID,99.512,VALID,0,VALID,19.3599,VALID,177,VALID,0.33505,
2003-12-03, 02:24:00,VALID,916.298,VALID,0,VALID,99.5997,VALID,0.0169808,VALID,19.3532,VALID,172,VALID,0.551829,
2003-12-03, 02:25:00,VALID,916.293,VALID,0,VALID,99.6684,VALID,-0.0169808,VALID,19.3564,VALID,168,VALID,0.223474,
2003-12-03, 02:26:00,VALID,916.268,VALID,0,VALID,99.6785,VALID,0,VALID,19.3567,VALID,173,VALID,0.345238,
2003-12-03, 02:27:00,VALID,916.262,VALID,0,VALID,99.662,VALID,0,VALID,19.3435,VALID,168,VALID,0.29566,
2003-12-03, 02:28:00,VALID,916.259,VALID,0,VALID,99.6544,VALID,0.0169808,VALID,19.3181,VALID,164,VALID,0.195313,
2003-12-03, 02:29:00,VALID,916.253,VALID,0,VALID,99.6544,VALID,0,VALID,19.3018,VALID,152,VALID,0.280273,
2003-12-03, 02:30:00,VALID,916.246,VALID,0,VALID,99.6824,VALID,0,VALID,19.2888,VALID,137,VALID,0.348544,
2003-12-03, 02:31:00,VALID,916.24,VALID,0,VALID,99.7485,VALID,0,VALID,19.2923,VALID,125,VALID,0.293555,
2003-12-03, 02:32:00,VALID,916.22,VALID,0,VALID,99.8006,VALID,-0.0169808,VALID,19.2985,VALID,125,VALID,0.307422,
2003-12-03, 02:33:00,VALID,916.203,VALID,0,VALID,99.8197,VALID,0,VALID,19.2983,VALID,125,VALID,0.297433,
2003-12-03, 02:34:00,VALID,916.18,VALID,0,VALID,99.8616,VALID,0.0169808,VALID,19.2978,VALID,125,VALID,0.243278,
2003-12-03, 02:35:00,VALID,916.151,VALID,0,VALID,99.8871,VALID,0.0169808,VALID,19.3147,VALID,125,VALID,0.346294,
2003-12-03, 02:36:00,VALID,916.135,VALID,0,VALID,99.8769,VALID,0,VALID,19.3209,VALID,125,VALID,0.423735,
2003-12-03, 02:37:00,VALID,916.112,VALID,0,VALID,99.9023,VALID,0.0339617,VALID,19.3308,VALID,125,VALID,0.556818,
2003-12-03, 02:38:00,VALID,916.094,VALID,0,VALID,99.8769,VALID,0.0339617,VALID,19.3142,VALID,122,VALID,0.501635,
2003-12-03, 02:39:00,VALID,916.085,VALID,0,VALID,99.8388,VALID,0.0169808,VALID,19.3018,VALID,77,VALID,0.718559,
2003-12-03, 02:40:00,VALID,916.093,VALID,0,VALID,99.779,VALID,0.0169808,VALID,19.2886,VALID,70,VALID,0.890625,
2003-12-03, 02:41:00,VALID,916.091,VALID,0,VALID,99.826,VALID,0.0169808,VALID,19.2888,VALID,72,VALID,0.757449,
2003-12-03, 02:42:00,VALID,916.094,VALID,0,VALID,99.8184,VALID,0.0169808,VALID,19.2859,VALID,74,VALID,0.576527,
2003-12-03, 02:43:00,VALID,916.097,VALID,0,VALID,99.8159,VALID,0.0339617,VALID,19.2792,VALID,74,VALID,0.538175,
2003-12-03, 02:44:00,VALID,916.095,VALID,0,VALID,99.8121,VALID,0.0169808,VALID,19.2692,VALID,80,VALID,0.486049,
2003-12-03, 02:45:00,VALID,916.089,VALID,0,VALID,99.8667,VALID,0.0679233,VALID,19.2528,VALID,104,VALID,0.674716,
2003-12-03, 02:46:00,VALID,916.067,VALID,0,VALID,99.8934,VALID,0,VALID,19.2496,VALID,117,VALID,0.962081,
2003-12-03, 02:47:00,VALID,916.054,VALID,0,VALID,99.9112,VALID,0.0169808,VALID,19.2662,VALID,122,VALID,0.945858,
2003-12-03, 02:48:00,VALID,916.05,VALID,0,VALID,99.9507,VALID,0,VALID,19.2628,VALID,130,VALID,0.969618,
2003-12-03, 02:49:00,VALID,916.021,VALID,0,VALID,99.9822,VALID,0.0339617,VALID,19.2787,VALID,128,VALID,1.01225,
2003-12-03, 02:50:00,VALID,915.999,VALID,0,VALID,99.999,VALID,0.0169808,VALID,19.2854,VALID,124,VALID,0.852679,
2003-12-03, 02:51:00,VALID,915.997,VALID,0,VALID,100,VALID,0.0509425,VALID,19.2951,VALID,125,VALID,0.799293,
2003-12-03, 02:52:00,VALID,915.967,VALID,0,VALID,100,VALID,0.0849042,VALID,19.2884,VALID,90,VALID,0.469122,
2003-12-03, 02:53:00,VALID,915.951,VALID,0,VALID,99.9977,VALID,0,VALID,19.2757,VALID,97,VALID,0.602653,
2003-12-03, 02:54:00,VALID,915.932,VALID,0,VALID,99.999,VALID,0,VALID,19.2789,VALID,104,VALID,0.773074,
2003-12-03, 02:55:00,VALID,915.916,VALID,0,VALID,100,VALID,0,VALID,19.2792,VALID,112,VALID,1.04451,
2003-12-03, 02:56:00,VALID,915.9,VALID,0,VALID,100,VALID,0,VALID,19.2856,VALID,125,VALID,1.09956,
2003-12-03, 02:57:00,VALID,915.882,VALID,0,VALID,100,VALID,0.0169808,VALID,19.2916,VALID,127,VALID,1.16311,
2003-12-03, 02:58:00,VALID,915.847,VALID,0,VALID,100,VALID,0.0339617,VALID,19.2951,VALID,118,VALID,1.06414,
2003-12-03, 02:59:00,VALID,915.817,VALID,0,VALID,100,VALID,0,VALID,19.299,VALID,117,VALID,1.18537,
2003-12-03, 03:00:00,VALID,915.797,VALID,0,VALID,100,VALID,0.0169808,VALID,19.2884,VALID,113,VALID,0.920603,
2003-12-03, 03:01:00,VALID,915.791,VALID,0,VALID,100,VALID,0.0169808,VALID,19.2792,VALID,117,VALID,0.929287,
2003-12-03, 03:02:00,VALID,915.779,VALID,0,VALID,100,VALID,0.0339617,VALID,19.2888,VALID,126,VALID,1.28811,
2003-12-03, 03:03:00,VALID,915.787,VALID,0,VALID,100,VALID,0.0169808,VALID,19.2988,VALID,125,VALID,1.14063,
2003-12-03, 03:04:00,VALID,915.788,VALID,0,VALID,100,VALID,0.0169808,VALID,19.2953,VALID,126,VALID,1.369,
2003-12-03, 03:05:00,VALID,915.788,VALID,0,VALID,100,VALID,0.0339617,VALID,19.298,VALID,131,VALID,1.45241,
2003-12-03, 03:06:00,VALID,915.78,VALID,0,VALID,100,VALID,0.0509425,VALID,19.2916,VALID,128,VALID,1.31668,
2003-12-03, 03:07:00,VALID,915.783,VALID,0,VALID,100,VALID,0.0169808,VALID,19.298,VALID,117,VALID,1.182,
2003-12-03, 03:08:00,VALID,915.748,VALID,0,VALID,100,VALID,0,VALID,19.2953,VALID,113,VALID,1.30859,
2003-12-03, 03:09:00,VALID,915.729,VALID,0,VALID,100,VALID,-0.0169808,VALID,19.2953,VALID,112,VALID,1.27362,
2003-12-03, 03:10:00,VALID,915.706,VALID,0,VALID,100,VALID,0,VALID,19.2851,VALID,109,VALID,0.873402,
2003-12-03, 03:11:00,VALID,915.685,VALID,0,VALID,100,VALID,0,VALID,19.275,VALID,111,VALID,1.16006,
2003-12-03, 03:12:00,VALID,915.676,VALID,0,VALID,100,VALID,-0.0169808,VALID,19.2821,VALID,117,VALID,1.25167,
2003-12-03, 03:13:00,VALID,915.663,VALID,0,VALID,100,VALID,-0.0169808,VALID,19.2918,VALID,120,VALID,1.26302,
2003-12-03, 03:14:00,VALID,915.652,VALID,0,VALID,100,VALID,-0.0169808,VALID,19.3085,VALID,114,VALID,1.39864,
2003-12-03, 03:15:00,VALID,915.627,VALID,0,VALID,100,VALID,0,VALID,19.2886,VALID,122,VALID,1.42898,
2003-12-03, 03:16:00,VALID,915.619,VALID,0,VALID,100,VALID,-0.0169808,VALID,19.2951,VALID,126,VALID,1.41126,
2003-12-03, 03:17:00,VALID,915.607,VALID,0,VALID,100,VALID,0,VALID,19.2792,VALID,128,VALID,1.27195,
2003-12-03, 03:18:00,VALID,915.588,VALID,0,VALID,100,VALID,0,VALID,19.2759,VALID,129,VALID,1.43182,
2003-12-03, 03:19:00,VALID,915.557,VALID,0,VALID,100,VALID,0.0169808,VALID,19.263,VALID,128,VALID,1.4217,
2003-12-03, 03:20:00,VALID,915.541,VALID,0,VALID,100,VALID,-0.0339617,VALID,19.263,VALID,127,VALID,1.36592,
2003-12-03, 03:21:00,VALID,915.508,VALID,0,VALID,100,VALID,0.0169808,VALID,19.2536,VALID,119,VALID,1.40305,
2003-12-03, 03:22:00,VALID,915.496,VALID,0,VALID,100,VALID,0,VALID,19.2369,VALID,118,VALID,1.33185,
2003-12-03, 03:23:00,VALID,915.475,VALID,0,VALID,100,VALID,-0.0339617,VALID,19.2374,VALID,124,VALID,1.23086,
2003-12-03, 03:24:00,VALID,915.478,VALID,0,VALID,100,VALID,0,VALID,19.2372,VALID,125,VALID,1.38548,
2003-12-03, 03:25:00,VALID,915.464,VALID,0,VALID,100,VALID,0,VALID,19.2402,VALID,130,VALID,1.34611,
2003-12-03, 03:26:00,VALID,915.475,VALID,0,VALID,99.9977,VALID,-0.0169808,VALID,19.23,VALID,139,VALID,1.23674,
2003-12-03, 03:27:00,VALID,915.47,VALID,0,VALID,99.9786,VALID,0,VALID,19.2496,VALID,139,VALID,1.34737,
2003-12-03, 03:28:00,VALID,915.461,VALID,0,VALID,99.9944,VALID,0.0169808,VALID,19.2717,VALID,139,VALID,1.45941,
2003-12-03, 03:29:00,VALID,915.429,VALID,0,VALID,100,VALID,0.0169808,VALID,19.2655,VALID,130,VALID,1.25312,
2003-12-03, 03:30:00,VALID,915.4,VALID,0,VALID,99.9835,VALID,0,VALID,19.2762,VALID,125,VALID,1.09996,
2003-12-03, 03:31:00,VALID,915.385,VALID,0,VALID,100,VALID,0,VALID,19.2466,VALID,122,VALID,1.27839,
2003-12-03, 03:32:00,VALID,915.357,VALID,0,VALID,100,VALID,0.0169808,VALID,19.2235,VALID,117,VALID,1.36109,
2003-12-03, 03:33:00,VALID,915.355,VALID,0,VALID,100,VALID,0,VALID,19.2079,VALID,113,VALID,1.31559,
2003-12-03, 03:34:00,VALID,915.354,VALID,0,VALID,100,VALID,0,VALID,19.1786,VALID,123,VALID,1.25818,
2003-12-03, 03:35:00,VALID,915.347,VALID,0,VALID,100,VALID,0,VALID,19.1723,VALID,129,VALID,1.16035,
2003-12-03, 03:36:00,VALID,915.357,VALID,0,VALID,100,VALID,0.0509425,VALID,19.1719,VALID,129,VALID,1.32459,